Weather History for Corvallis, OR

Change the Weather History Date:

Friday, November 29, 2013

  Actual Average Record
Temperature  
Mean Temperature 34 °F -  
Max Temperature 44 °F 48 °F 66 °F (2008)
Min Temperature 24 °F 36 °F 24 °F (2013)
Degree Days  
Heating Degree Days 31    
Moisture  
Dew Point 32 °F    
Average Humidity 91    
Maximum Humidity 100    
Minimum Humidity 76    
Precipitation  
Precipitation 0.00 in - - ()
Sea Level Pressure  
Sea Level Pressure 30.31 in    
Wind  
Wind Speed 0 mph (NE)    
Max Wind Speed 5 mph    
Max Gust Speed -    
Visibility 7 miles    
Events      
Averages and records for this station are not official NWS values.
T = Trace of Precipitation, MM = Missing Value Source: NWS Daily Summary

Daily Weather History Graph

Daily Weather History Graph

Search for Another Location

Airport:

Trip Planner

Search our weather history database for the weather conditions in past years. The results will help you decide how hot, cold, wet, or windy it might be!

Date:

Astronomy

Nov. 29, 2013 Rise Set
Actual Time 7:27 AM PST 4:35 PM PST
Civil Twilight 6:54 AM PST 5:08 PM PST
Nautical Twilight 6:18 AM PST 5:44 PM PST
Astronomical Twilight 5:43 AM PST 6:19 PM PST
Moon 3:31 AM PST 2:30 PM PST
Length of Visible Light 10h 13m
Length of Day
9h 07m
Waning Crescent, 13% of the Moon is Illuminated
Nov 29
Waning Crescent
Dec 2
New
Dec 9
First Quarter
Dec 17
Full
Dec 25
Last Quarter

Hourly Weather History & Observations

Time (PST) Temp. Windchill Dew Point Humidity Pressure Visibility Wind Dir Wind Speed Gust Speed Precip Events Conditions
12:15 AM 28.4 °F - 26.6 °F 93% 30.22 in 8.0 mi Calm Calm - N/A   Partly Cloudy
12:35 AM 26.6 °F - 24.8 °F 93% 30.23 in 10.0 mi Calm Calm - N/A   Partly Cloudy
12:55 AM 26.6 °F - 26.6 °F 100% 30.23 in 10.0 mi Calm Calm - N/A   Clear
1:15 AM 26.6 °F - 24.8 °F 93% 30.24 in 0.5 mi Calm Calm - N/A   Mostly Cloudy
1:35 AM 26.6 °F - 24.8 °F 93% 30.24 in 8.0 mi Calm Calm - N/A   Mostly Cloudy
1:55 AM 26.6 °F - 24.8 °F 93% 30.24 in 9.0 mi Calm Calm - N/A   Clear
2:15 AM 26.6 °F 21.2 °F 24.8 °F 93% 30.25 in 9.0 mi NW 4.6 mph - N/A   Clear
2:35 AM 26.6 °F - 23.0 °F 86% 30.25 in 8.0 mi Calm Calm - N/A   Clear
2:55 AM 26.6 °F - 24.8 °F 93% 30.26 in 2.0 mi Calm Calm - N/A   Scattered Clouds
3:15 AM 26.6 °F - 26.6 °F 100% 30.26 in 10.0 mi Calm Calm - N/A   Partly Cloudy
3:35 AM 26.6 °F - 23.0 °F 86% 30.26 in - Calm Calm - N/A   Unknown
3:55 AM 26.6 °F - 26.6 °F 100% 30.26 in - Calm Calm - N/A   Unknown
4:15 AM 24.8 °F - 24.8 °F 100% 30.26 in - Calm Calm - N/A   Unknown
4:35 AM 26.6 °F - 21.2 °F 80% 30.26 in - Calm Calm - N/A   Partly Cloudy
4:55 AM 26.6 °F - 26.6 °F 100% 30.27 in - Calm Calm - N/A   Mostly Cloudy
5:15 AM 26.6 °F - 24.8 °F 93% 30.27 in - Calm Calm - N/A   Overcast
5:35 AM 26.6 °F - 23.0 °F 86% 30.27 in - Calm Calm - N/A   Overcast
5:55 AM 24.8 °F - 24.8 °F 100% 30.28 in - Calm Calm - N/A   Overcast
6:15 AM 24.8 °F - 23.0 °F 93% 30.28 in 0.8 mi Calm Calm - N/A   Overcast
6:35 AM 24.8 °F - 21.2 °F 86% 30.27 in 0.8 mi Calm Calm - N/A   Overcast
6:55 AM 26.6 °F - 26.6 °F 100% 30.28 in 0.8 mi Calm Calm - N/A   Overcast
7:15 AM 26.6 °F - 24.8 °F 93% 30.28 in - Calm Calm - N/A   Overcast
7:35 AM 26.6 °F - 24.8 °F 93% 30.29 in - Calm Calm - N/A   Overcast
7:55 AM 26.6 °F - 26.6 °F 100% 30.29 in 0.2 mi Calm Calm - N/A   Overcast
8:15 AM 26.6 °F - 24.8 °F 93% 30.29 in - Calm Calm - N/A   Overcast
8:35 AM 28.4 °F - 26.6 °F 93% 30.30 in - Calm Calm - N/A   Unknown
8:55 AM 28.4 °F - 28.4 °F 100% 30.31 in 5.0 mi Calm Calm - N/A   Clear
9:15 AM 30.2 °F - 28.4 °F 93% 30.32 in 7.0 mi Calm Calm - N/A   Partly Cloudy
9:35 AM 30.2 °F 26.7 °F 30.2 °F 100% 30.33 in 7.0 mi NNE 3.5 mph - N/A   Partly Cloudy
9:55 AM 32.0 °F - 30.2 °F 93% 30.33 in 5.0 mi Calm Calm - N/A   Partly Cloudy
10:15 AM 33.8 °F 30.8 °F 33.8 °F 100% 30.33 in 5.0 mi ENE 3.5 mph - N/A   Mostly Cloudy
10:35 AM 33.8 °F - 33.8 °F 100% 30.34 in 1.8 mi Calm Calm - N/A   Overcast
10:55 AM 35.6 °F 32.8 °F 33.8 °F 93% 30.33 in 2.5 mi East 3.5 mph - N/A   Overcast
11:15 AM 37.4 °F 34.9 °F 33.8 °F 87% 30.33 in 7.0 mi East 3.5 mph - N/A   Scattered Clouds
11:35 AM 37.4 °F - 35.6 °F 93% 30.33 in 5.0 mi Calm Calm - N/A   Scattered Clouds
11:55 AM 39.2 °F - 37.4 °F 93% 30.32 in 3.0 mi Calm Calm - N/A   Clear
12:15 PM 39.2 °F - 35.6 °F 87% 30.32 in 8.0 mi Calm Calm - N/A   Clear
12:35 PM 39.2 °F - 35.6 °F 87% 30.32 in 9.0 mi Calm Calm - N/A   Clear
12:55 PM 41.0 °F - 35.6 °F 81% 30.31 in 10.0 mi Calm Calm - N/A   Clear
1:15 PM 41.0 °F - 37.4 °F 87% 30.30 in 9.0 mi Calm Calm - N/A   Clear
1:35 PM 42.8 °F - 39.2 °F 87% 30.29 in 10.0 mi Calm Calm - N/A   Clear
1:55 PM 42.8 °F - 37.4 °F 81% 30.29 in 10.0 mi Calm Calm - N/A   Clear
2:15 PM 42.8 °F 41.1 °F 37.4 °F 81% 30.29 in 10.0 mi NNE 3.5 mph - N/A   Clear
2:35 PM 42.8 °F - 37.4 °F 81% 30.29 in 10.0 mi Calm Calm - N/A   Scattered Clouds
2:55 PM 42.8 °F - 37.4 °F 81% 30.29 in 10.0 mi Calm Calm - N/A   Scattered Clouds
3:15 PM 44.6 °F - 39.2 °F 81% 30.30 in 10.0 mi Calm Calm - N/A   Partly Cloudy
3:35 PM 44.6 °F - 39.2 °F 81% 30.30 in 10.0 mi Calm Calm - N/A   Partly Cloudy
3:55 PM 44.6 °F - 37.4 °F 76% 30.30 in 10.0 mi Calm Calm - N/A   Mostly Cloudy
4:15 PM 44.6 °F - 39.2 °F 81% 30.31 in 10.0 mi Calm Calm - N/A   Overcast
4:35 PM 42.8 °F - 39.2 °F 87% 30.31 in 10.0 mi Calm Calm - N/A   Overcast
4:55 PM 42.8 °F - 37.4 °F 81% 30.31 in 10.0 mi Calm Calm - N/A   Overcast
5:15 PM 42.8 °F - 37.4 °F 81% 30.31 in 10.0 mi Calm Calm - N/A   Mostly Cloudy
5:35 PM 41.0 °F - 39.2 °F 93% 30.32 in 9.0 mi Calm Calm - N/A   Partly Cloudy
5:55 PM 42.8 °F - 37.4 °F 81% 30.32 in 10.0 mi Calm Calm - N/A   Clear
6:15 PM 39.2 °F - 37.4 °F 93% 30.33 in 10.0 mi Calm Calm - N/A   Partly Cloudy
6:35 PM 39.2 °F - 37.4 °F 93% 30.33 in 10.0 mi Calm Calm - N/A   Partly Cloudy
6:55 PM 39.2 °F - 37.4 °F 93% 30.34 in 10.0 mi Calm Calm - N/A   Partly Cloudy
7:15 PM 39.2 °F 37.0 °F 37.4 °F 93% 30.35 in 10.0 mi East 3.5 mph - N/A   Mostly Cloudy
7:35 PM 39.2 °F - 37.4 °F 93% 30.35 in 8.0 mi Calm Calm - N/A   Overcast
7:55 PM 39.2 °F - 35.6 °F 87% 30.37 in 8.0 mi Calm Calm - N/A   Overcast
8:15 PM 39.2 °F 37.0 °F 37.4 °F 93% 30.37 in 9.0 mi WSW 3.5 mph - N/A   Overcast
8:35 PM 39.2 °F - 39.2 °F 100% 30.37 in 9.0 mi Calm Calm - N/A   Overcast
8:55 PM 39.2 °F - 37.4 °F 93% 30.38 in 9.0 mi Calm Calm - N/A   Overcast
9:15 PM 39.2 °F - 37.4 °F 93% 30.38 in 8.0 mi Calm Calm - N/A   Overcast
9:35 PM 39.2 °F - 37.4 °F 93% 30.38 in 9.0 mi Calm Calm - N/A   Overcast
9:55 PM 41.0 °F - 39.2 °F 93% 30.37 in 8.0 mi Calm Calm - N/A   Overcast
10:15 PM 39.2 °F - 39.2 °F 100% 30.37 in 7.0 mi Calm Calm - N/A   Overcast
10:35 PM 41.0 °F - 37.4 °F 87% 30.37 in 5.0 mi Calm Calm - N/A   Overcast
10:55 PM 39.2 °F - 37.4 °F 93% 30.37 in 6.0 mi Calm Calm - N/A   Overcast
11:15 PM 39.2 °F - 37.4 °F 93% 30.37 in 5.0 mi Calm Calm - N/A   Overcast
11:35 PM 39.2 °F 37.0 °F 39.2 °F 100% 30.37 in 5.0 mi NW 3.5 mph - N/A   Mostly Cloudy
11:55 PM 37.4 °F - 37.4 °F 100% 30.36 in 3.0 mi Calm Calm - N/A   Mostly Cloudy